Time,TemperatureF,DewpointF,PressureIn,WindDirection,WindDirectionDegrees,WindSpeedMPH,WindSpeedGustMPH,Humidity,HourlyPrecipIn,Conditions,Clouds,dailyrainin,SolarRadiationWatts/m^2,SoftwareType,DateUTC
2013-02-26 00:02:00,39.3,35.2,30.22,SE,135,0.0,2.0,85,0.00,,,0.00,0,Wunderground v.1.15,2013-02-26 05:02:00,
2013-02-26 00:07:00,39.3,35.2,30.22,SE,135,0.0,2.0,85,0.00,,,0.00,0,Wunderground v.1.15,2013-02-26 05:07:00,
2013-02-26 00:12:00,39.4,35.3,30.22,SE,135,0.0,2.0,85,0.00,,,0.00,0,Wunderground v.1.15,2013-02-26 05:12:00,
2013-02-26 00:22:00,39.2,35.1,30.22,SE,135,0.0,2.0,85,0.00,,,0.00,0,Wunderground v.1.15,2013-02-26 05:22:00,
2013-02-26 00:27:00,39.2,35.1,30.22,SE,135,0.0,1.0,85,0.00,,,0.00,0,Wunderground v.1.15,2013-02-26 05:27:00,
2013-02-26 00:37:00,38.9,34.5,30.22,SE,135,0.0,1.0,84,0.00,,,0.00,0,Wunderground v.1.15,2013-02-26 05:37:00,
2013-02-26 00:42:00,39.0,34.9,30.22,SE,135,0.0,1.0,85,0.00,,,0.00,0,Wunderground v.1.15,2013-02-26 05:42:00,
2013-02-26 00:47:00,38.7,34.6,30.22,SE,135,0.0,1.0,85,0.00,,,0.00,0,Wunderground v.1.15,2013-02-26 05:47:00,
2013-02-26 00:57:00,38.7,34.6,30.22,SE,135,0.0,1.0,85,0.00,,,0.00,0,Wunderground v.1.15,2013-02-26 05:57:00,
2013-02-26 01:02:00,38.4,34.3,30.21,SE,135,0.0,1.0,85,0.00,,,0.00,0,Wunderground v.1.15,2013-02-26 06:02:00,
2013-02-26 01:12:00,38.1,34.3,30.21,SE,135,0.0,1.0,86,0.00,,,0.00,0,Wunderground v.1.15,2013-02-26 06:12:00,
2013-02-26 01:17:00,38.2,34.4,30.21,SE,135,0.0,1.0,86,0.00,,,0.00,0,Wunderground v.1.15,2013-02-26 06:17:00,
2013-02-26 01:27:00,38.1,34.3,30.21,SE,135,0.0,1.0,86,0.00,,,0.00,0,Wunderground v.1.15,2013-02-26 06:27:00,
2013-02-26 01:37:00,37.9,34.4,30.20,SE,135,1.0,2.0,87,0.00,,,0.00,0,Wunderground v.1.15,2013-02-26 06:37:00,
2013-02-26 01:47:00,38.1,34.6,30.22,SE,135,0.0,1.0,87,0.00,,,0.00,0,Wunderground v.1.15,2013-02-26 06:47:00,
2013-02-26 01:57:00,38.3,34.5,30.23,SE,135,0.0,3.0,86,0.00,,,0.00,0,Wunderground v.1.15,2013-02-26 06:57:00,
2013-02-26 02:02:00,38.3,34.5,30.24,SE,135,0.0,3.0,86,0.00,,,0.00,0,Wunderground v.1.15,2013-02-26 07:02:00,
2013-02-26 02:12:00,38.4,34.9,30.24,SE,135,0.0,3.0,87,0.00,,,0.00,0,Wunderground v.1.15,2013-02-26 07:12:00,
2013-02-26 02:17:00,38.4,34.6,30.24,SE,135,0.0,3.0,86,0.00,,,0.00,0,Wunderground v.1.15,2013-02-26 07:17:00,
2013-02-26 02:27:00,38.2,34.4,30.24,SE,135,0.0,2.0,86,0.00,,,0.00,0,Wunderground v.1.15,2013-02-26 07:27:00,
2013-02-26 02:37:00,38.5,34.4,30.24,SE,135,0.0,2.0,85,0.00,,,0.00,0,Wunderground v.1.15,2013-02-26 07:37:00,
2013-02-26 02:47:00,38.1,34.3,30.25,SE,135,0.0,2.0,86,0.00,,,0.00,0,Wunderground v.1.15,2013-02-26 07:47:00,
2013-02-26 02:57:00,38.1,34.3,30.25,SE,135,0.0,1.0,86,0.00,,,0.00,0,Wunderground v.1.15,2013-02-26 07:57:00,
2013-02-26 03:07:00,37.7,33.9,30.25,SE,135,0.0,1.0,86,0.00,,,0.00,0,Wunderground v.1.15,2013-02-26 08:07:00,
2013-02-26 03:17:00,37.5,33.7,30.25,SE,135,0.0,1.0,86,0.00,,,0.00,0,Wunderground v.1.15,2013-02-26 08:17:00,
2013-02-26 03:27:00,37.3,33.5,30.25,SE,135,1.0,1.0,86,0.00,,,0.00,0,Wunderground v.1.15,2013-02-26 08:27:00,
2013-02-26 03:37:00,37.2,33.4,30.24,SE,135,0.0,3.0,86,0.00,,,0.00,0,Wunderground v.1.15,2013-02-26 08:37:00,
2013-02-26 03:47:00,37.1,33.6,30.25,SE,135,1.0,3.0,87,0.00,,,0.00,0,Wunderground v.1.15,2013-02-26 08:47:00,
2013-02-26 03:52:00,37.0,33.2,30.25,SE,135,1.0,4.0,86,0.00,,,0.00,0,Wunderground v.1.15,2013-02-26 08:52:00,
2013-02-26 04:02:00,37.1,33.3,30.25,SE,135,0.0,4.0,86,0.00,,,0.00,0,Wunderground v.1.15,2013-02-26 09:02:00,
2013-02-26 04:12:00,37.1,33.3,30.25,SE,135,1.0,4.0,86,0.00,,,0.00,0,Wunderground v.1.15,2013-02-26 09:12:00,
2013-02-26 04:22:00,37.1,33.3,30.25,SE,135,1.0,4.0,86,0.00,,,0.00,0,Wunderground v.1.15,2013-02-26 09:22:00,
2013-02-26 04:32:00,36.7,32.9,30.25,SE,135,1.0,3.0,86,0.00,,,0.00,0,Wunderground v.1.15,2013-02-26 09:32:00,
2013-02-26 04:37:00,36.8,33.3,30.25,SE,135,1.0,1.0,87,0.00,,,0.00,0,Wunderground v.1.15,2013-02-26 09:37:00,
2013-02-26 04:47:00,36.9,33.4,30.25,SE,135,1.0,3.0,87,0.00,,,0.00,0,Wunderground v.1.15,2013-02-26 09:47:00,
2013-02-26 04:52:00,36.9,33.1,30.25,SE,135,2.0,4.0,86,0.00,,,0.00,0,Wunderground v.1.15,2013-02-26 09:52:00,
2013-02-26 05:02:00,36.9,33.4,30.25,SE,135,1.0,4.0,87,0.00,,,0.00,0,Wunderground v.1.15,2013-02-26 10:02:00,
2013-02-26 05:12:00,36.9,33.4,30.25,SE,135,2.0,4.0,87,0.00,,,0.00,0,Wunderground v.1.15,2013-02-26 10:12:00,
2013-02-26 05:22:00,36.9,33.4,30.25,SE,135,2.0,4.0,87,0.00,,,0.00,0,Wunderground v.1.15,2013-02-26 10:22:00,
2013-02-26 05:32:00,36.9,33.4,30.26,SE,135,2.0,4.0,87,0.00,,,0.00,0,Wunderground v.1.15,2013-02-26 10:32:00,
2013-02-26 05:37:00,36.9,33.1,30.25,SE,135,1.0,4.0,86,0.00,,,0.00,0,Wunderground v.1.15,2013-02-26 10:37:00,
2013-02-26 05:47:00,36.9,33.4,30.26,SE,135,1.0,4.0,87,0.00,,,0.00,0,Wunderground v.1.15,2013-02-26 10:47:00,
2013-02-26 05:57:00,37.0,33.2,30.26,SE,135,1.0,3.0,86,0.00,,,0.00,0,Wunderground v.1.15,2013-02-26 10:57:00,
2013-02-26 06:07:00,36.9,33.1,30.25,SE,135,1.0,3.0,86,0.00,,,0.00,0,Wunderground v.1.15,2013-02-26 11:07:00,
2013-02-26 06:17:00,36.9,33.1,30.25,SE,135,1.0,3.0,86,0.00,,,0.00,0,Wunderground v.1.15,2013-02-26 11:17:00,
2013-02-26 06:27:00,36.9,33.1,30.25,NNE,32,2.0,5.0,86,0.00,,,0.00,0,Wunderground v.1.15,2013-02-26 11:27:00,
2013-02-26 06:37:00,36.9,33.1,30.25,NNE,26,2.0,5.0,86,0.00,,,0.00,5,Wunderground v.1.15,2013-02-26 11:37:00,
2013-02-26 06:47:00,36.9,33.1,30.25,NNE,22,3.0,3.0,86,0.00,,,0.00,11,Wunderground v.1.15,2013-02-26 11:47:00,
2013-02-26 06:57:00,37.1,33.0,30.26,NNE,29,3.0,6.0,85,0.00,,,0.00,14,Wunderground v.1.15,2013-02-26 11:57:00,
2013-02-26 07:07:00,37.1,33.0,30.26,NE,40,2.0,6.0,85,0.00,,,0.00,16,Wunderground v.1.15,2013-02-26 12:07:00,
2013-02-26 07:17:00,37.3,33.2,30.26,NE,40,2.0,6.0,85,0.00,,,0.00,21,Wunderground v.1.15,2013-02-26 12:17:00,
2013-02-26 07:27:00,37.5,33.1,30.26,NE,40,2.0,7.0,84,0.00,,,0.00,33,Wunderground v.1.15,2013-02-26 12:27:00,
2013-02-26 07:32:00,37.6,33.2,30.26,NE,40,2.0,7.0,84,0.00,,,0.00,39,Wunderground v.1.15,2013-02-26 12:32:00,
2013-02-26 07:42:00,37.9,33.2,30.27,NE,40,2.0,7.0,83,0.00,,,0.00,46,Wunderground v.1.15,2013-02-26 12:42:00,
2013-02-26 07:52:00,38.2,33.2,30.27,NE,40,3.0,7.0,82,0.00,,,0.00,67,Wunderground v.1.15,2013-02-26 12:52:00,
2013-02-26 07:57:00,38.3,33.3,30.28,NE,40,3.0,3.0,82,0.00,,,0.00,77,Wunderground v.1.15,2013-02-26 12:57:00,
2013-02-26 08:07:00,38.8,33.2,30.28,NE,40,2.0,5.0,80,0.00,,,0.00,77,Wunderground v.1.15,2013-02-26 13:07:00,
2013-02-26 08:12:00,39.0,33.4,30.28,NE,40,2.0,5.0,80,0.00,,,0.00,93,Wunderground v.1.15,2013-02-26 13:12:00,
2013-02-26 08:22:00,39.4,33.4,30.28,ENE,65,3.0,5.0,79,0.00,,,0.00,100,Wunderground v.1.15,2013-02-26 13:22:00,
2013-02-26 08:32:00,39.8,33.5,30.29,ENE,62,2.0,5.0,78,0.00,,,0.00,111,Wunderground v.1.15,2013-02-26 13:32:00,
2013-02-26 08:37:00,39.8,33.5,30.29,NE,49,3.0,5.0,78,0.00,,,0.00,113,Wunderground v.1.15,2013-02-26 13:37:00,
2013-02-26 08:47:00,39.8,33.5,30.29,ENE,72,4.0,4.0,78,0.00,,,0.00,98,Wunderground v.1.15,2013-02-26 13:47:00,
2013-02-26 09:32:00,40.6,34.0,30.30,ENE,69,4.0,4.0,77,0.00,,,0.00,114,Wunderground v.1.15,2013-02-26 14:32:00,
2013-02-26 09:42:00,40.7,34.4,30.30,NE,45,3.0,8.0,78,0.00,,,0.00,116,Wunderground v.1.15,2013-02-26 14:42:00,
2013-02-26 09:52:00,40.9,34.6,30.30,ENE,73,3.0,8.0,78,0.00,,,0.00,148,Wunderground v.1.15,2013-02-26 14:52:00,
2013-02-26 10:02:00,40.8,34.8,30.29,ENE,58,4.0,4.0,79,0.00,,,0.00,153,Wunderground v.1.15,2013-02-26 15:02:00,
2013-02-26 10:12:00,41.2,35.2,30.29,NE,43,4.0,8.0,79,0.00,,,0.00,162,Wunderground v.1.15,2013-02-26 15:12:00,
2013-02-26 10:22:00,41.1,35.4,30.28,NE,34,5.0,10.0,80,0.00,,,0.00,181,Wunderground v.1.15,2013-02-26 15:22:00,
2013-02-26 10:27:00,41.0,35.3,30.28,ENE,68,6.0,10.0,80,0.00,,,0.00,199,Wunderground v.1.15,2013-02-26 15:27:00,
2013-02-26 10:37:00,41.3,35.6,30.28,ENE,65,6.0,10.0,80,0.00,,,0.00,220,Wunderground v.1.15,2013-02-26 15:37:00,
2013-02-26 10:42:00,41.6,35.9,30.28,East,94,5.0,10.0,80,0.00,,,0.00,243,Wunderground v.1.15,2013-02-26 15:42:00,
2013-02-26 10:52:00,42.0,36.0,30.29,NE,49,5.0,11.0,79,0.00,,,0.00,258,Wunderground v.1.15,2013-02-26 15:52:00,
2013-02-26 11:02:00,42.1,35.7,30.29,NE,53,6.0,11.0,78,0.00,,,0.00,258,Wunderground v.1.15,2013-02-26 16:02:00,
2013-02-26 11:07:00,42.2,35.8,30.29,ENE,69,5.0,5.0,78,0.00,,,0.00,250,Wunderground v.1.15,2013-02-26 16:07:00,
2013-02-26 11:17:00,42.5,35.8,30.30,ENE,78,5.0,5.0,77,0.00,,,0.00,265,Wunderground v.1.15,2013-02-26 16:17:00,
2013-02-26 11:22:00,42.3,35.6,30.30,ENE,65,7.0,10.0,77,0.00,,,0.00,274,Wunderground v.1.15,2013-02-26 16:22:00,
2013-02-26 11:32:00,42.6,35.9,30.30,ESE,103,7.0,14.0,77,0.00,,,0.00,334,Wunderground v.1.15,2013-02-26 16:32:00,
2013-02-26 11:42:00,43.0,35.6,30.30,East,87,6.0,7.0,75,0.00,,,0.00,364,Wunderground v.1.15,2013-02-26 16:42:00,
2013-02-26 11:47:00,43.0,36.0,30.29,ENE,62,6.0,14.0,76,0.00,,,0.00,374,Wunderground v.1.15,2013-02-26 16:47:00,
2013-02-26 11:57:00,43.1,35.7,30.29,East,93,6.0,6.0,75,0.00,,,0.00,371,Wunderground v.1.15,2013-02-26 16:57:00,
2013-02-26 12:07:00,43.6,36.2,30.29,ENE,66,7.0,13.0,75,0.00,,,0.00,350,Wunderground v.1.15,2013-02-26 17:07:00,
2013-02-26 12:12:00,43.4,35.7,30.28,ENE,78,6.0,13.0,74,0.00,,,0.00,355,Wunderground v.1.15,2013-02-26 17:12:00,
2013-02-26 12:22:00,43.3,35.9,30.28,SE,125,8.0,14.0,75,0.00,,,0.00,418,Wunderground v.1.15,2013-02-26 17:22:00,
2013-02-26 12:27:00,43.5,36.1,30.27,East,87,8.0,8.0,75,0.00,,,0.00,464,Wunderground v.1.15,2013-02-26 17:27:00,
2013-02-26 12:37:00,43.8,36.0,30.27,ENE,59,8.0,8.0,74,0.00,,,0.00,445,Wunderground v.1.15,2013-02-26 17:37:00,
2013-02-26 12:47:00,43.4,36.0,30.26,East,79,8.0,14.0,75,0.00,,,0.00,462,Wunderground v.1.15,2013-02-26 17:47:00,
2013-02-26 12:52:00,43.3,35.6,30.26,ESE,106,8.0,15.0,74,0.00,,,0.00,457,Wunderground v.1.15,2013-02-26 17:52:00,
2013-02-26 12:57:00,43.9,35.8,30.26,ENE,65,7.0,7.0,73,0.00,,,0.00,443,Wunderground v.1.15,2013-02-26 17:57:00,
2013-02-26 13:07:00,44.5,35.7,30.25,East,84,6.0,6.0,71,0.00,,,0.00,434,Wunderground v.1.15,2013-02-26 18:07:00,
2013-02-26 13:12:00,44.2,35.7,30.25,ENE,71,6.0,11.0,72,0.00,,,0.00,415,Wunderground v.1.15,2013-02-26 18:12:00,
2013-02-26 13:22:00,43.1,35.7,30.25,ESE,103,9.0,15.0,75,0.00,,,0.00,383,Wunderground v.1.15,2013-02-26 18:22:00,
2013-02-26 13:32:00,43.0,36.3,30.25,East,82,9.0,15.0,77,0.00,,,0.00,334,Wunderground v.1.15,2013-02-26 18:32:00,
2013-02-26 13:42:00,42.8,36.1,30.25,East,93,7.0,15.0,77,0.00,,,0.00,257,Wunderground v.1.15,2013-02-26 18:42:00,
2013-02-26 13:52:00,42.5,36.1,30.24,ENE,69,8.0,15.0,78,0.00,,,0.00,258,Wunderground v.1.15,2013-02-26 18:52:00,
2013-02-26 14:02:00,42.4,36.3,30.24,ESE,113,8.0,14.0,79,0.00,,,0.00,241,Wunderground v.1.15,2013-02-26 19:02:00,
2013-02-26 14:12:00,42.4,36.0,30.24,ESE,105,7.0,14.0,78,0.00,,,0.00,315,Wunderground v.1.15,2013-02-26 19:12:00,
2013-02-26 14:22:00,42.7,36.0,30.24,ESE,105,7.0,11.0,77,0.00,,,0.00,343,Wunderground v.1.15,2013-02-26 19:22:00,
2013-02-26 14:32:00,42.2,35.8,30.24,East,93,9.0,9.0,78,0.00,,,0.00,308,Wunderground v.1.15,2013-02-26 19:32:00,
2013-02-26 14:42:00,42.4,35.7,30.24,ENE,76,8.0,17.0,77,0.00,,,0.00,292,Wunderground v.1.15,2013-02-26 19:42:00,
2013-02-26 14:47:00,42.2,35.2,30.24,ENE,76,8.0,17.0,76,0.00,,,0.00,269,Wunderground v.1.15,2013-02-26 19:47:00,
2013-02-26 14:57:00,41.5,35.2,30.24,ENE,70,9.0,9.0,78,0.00,,,0.00,237,Wunderground v.1.15,2013-02-26 19:57:00,
2013-02-26 15:07:00,41.3,35.0,30.24,East,83,9.0,16.0,78,0.00,,,0.00,179,Wunderground v.1.15,2013-02-26 20:07:00,
2013-02-26 15:12:00,41.2,34.9,30.24,East,81,8.0,16.0,78,0.00,,,0.00,167,Wunderground v.1.15,2013-02-26 20:12:00,
2013-02-26 15:22:00,41.0,34.7,30.23,East,82,9.0,10.0,78,0.00,,,0.00,149,Wunderground v.1.15,2013-02-26 20:22:00,
2013-02-26 15:32:00,40.8,34.5,30.22,ENE,78,8.0,17.0,78,0.00,,,0.00,153,Wunderground v.1.15,2013-02-26 20:32:00,
2013-02-26 15:42:00,40.6,34.0,30.22,East,86,9.0,17.0,77,0.00,,,0.00,141,Wunderground v.1.15,2013-02-26 20:42:00,
2013-02-26 15:52:00,40.5,33.5,30.21,East,98,8.0,17.0,76,0.00,,,0.00,120,Wunderground v.1.15,2013-02-26 20:52:00,
2013-02-26 15:57:00,40.4,33.1,30.20,ENE,63,8.0,17.0,75,0.00,,,0.00,111,Wunderground v.1.15,2013-02-26 20:57:00,
2013-02-26 16:07:00,40.2,31.9,30.19,ENE,72,9.0,17.0,72,0.00,,,0.00,88,Wunderground v.1.15,2013-02-26 21:07:00,
2013-02-26 16:12:00,40.2,32.2,30.20,ENE,69,9.0,17.0,73,0.00,,,0.00,86,Wunderground v.1.15,2013-02-26 21:12:00,
2013-02-26 16:22:00,40.0,32.0,30.20,ENE,58,9.0,17.0,73,0.00,,,0.00,69,Wunderground v.1.15,2013-02-26 21:22:00,
2013-02-26 16:27:00,39.9,32.3,30.19,ENE,78,8.0,8.0,74,0.00,,,0.00,62,Wunderground v.1.15,2013-02-26 21:27:00,
2013-02-26 16:37:00,39.8,32.8,30.19,ENE,67,9.0,16.0,76,0.00,,,0.00,53,Wunderground v.1.15,2013-02-26 21:37:00,
2013-02-26 16:47:00,39.6,33.0,30.19,NE,43,9.0,16.0,77,0.00,,,0.00,44,Wunderground v.1.15,2013-02-26 21:47:00,
2013-02-26 16:57:00,39.4,33.1,30.19,East,82,9.0,16.0,78,0.00,,,0.00,33,Wunderground v.1.15,2013-02-26 21:57:00,
2013-02-26 17:07:00,39.2,33.2,30.19,NE,49,8.0,8.0,79,0.00,,,0.00,21,Wunderground v.1.15,2013-02-26 22:07:00,
2013-02-26 17:12:00,39.2,33.5,30.19,ENE,73,8.0,16.0,80,0.00,,,0.00,18,Wunderground v.1.15,2013-02-26 22:12:00,
2013-02-26 17:22:00,39.0,33.7,30.19,ESE,111,7.0,16.0,81,0.00,,,0.00,9,Wunderground v.1.15,2013-02-26 22:22:00,
2013-02-26 17:32:00,38.9,33.6,30.18,NE,38,8.0,16.0,81,0.00,,,0.00,0,Wunderground v.1.15,2013-02-26 22:32:00,
2013-02-26 17:42:00,38.8,33.5,30.18,ENE,76,9.0,16.0,81,0.00,,,0.00,0,Wunderground v.1.15,2013-02-26 22:42:00,
2013-02-26 17:52:00,38.8,33.5,30.17,ENE,57,10.0,16.0,81,0.00,,,0.00,0,Wunderground v.1.15,2013-02-26 22:52:00,
2013-02-26 17:57:00,38.7,33.7,30.17,NE,51,9.0,9.0,82,0.00,,,0.00,0,Wunderground v.1.15,2013-02-26 22:57:00,
2013-02-26 18:07:00,38.6,33.3,30.16,NNE,21,9.0,16.0,81,0.00,,,0.00,0,Wunderground v.1.15,2013-02-26 23:07:00,
2013-02-26 18:17:00,38.7,33.1,30.16,NE,51,10.0,10.0,80,0.00,,,0.00,0,Wunderground v.1.15,2013-02-26 23:17:00,
2013-02-26 18:27:00,38.8,33.2,30.16,East,79,10.0,18.0,80,0.00,,,0.00,0,Wunderground v.1.15,2013-02-26 23:27:00,
2013-02-26 18:32:00,38.8,33.5,30.16,East,90,9.0,18.0,81,0.00,,,0.00,0,Wunderground v.1.15,2013-02-26 23:32:00,
2013-02-26 18:42:00,38.9,33.6,30.14,NE,51,10.0,18.0,81,0.00,,,0.00,0,Wunderground v.1.15,2013-02-26 23:42:00,
2013-02-26 18:52:00,39.0,33.7,30.15,East,83,10.0,13.0,81,0.00,,,0.00,0,Wunderground v.1.15,2013-02-26 23:52:00,
2013-02-26 18:57:00,39.1,33.8,30.15,ENE,78,10.0,10.0,81,0.00,,,0.00,0,Wunderground v.1.15,2013-02-26 23:57:00,
2013-02-26 19:07:00,39.3,34.0,30.15,ENE,74,10.0,10.0,81,0.00,,,0.00,0,Wunderground v.1.15,2013-02-27 00:07:00,
2013-02-26 19:17:00,39.3,34.0,30.14,ENE,71,10.0,10.0,81,0.00,,,0.00,0,Wunderground v.1.15,2013-02-27 00:17:00,
2013-02-26 19:27:00,39.3,34.0,30.14,NE,42,10.0,10.0,81,0.00,,,0.00,0,Wunderground v.1.15,2013-02-27 00:27:00,
2013-02-26 19:32:00,39.3,34.3,30.14,ENE,71,11.0,11.0,82,0.00,,,0.00,0,Wunderground v.1.15,2013-02-27 00:32:00,
2013-02-26 19:42:00,39.3,34.3,30.14,East,86,11.0,17.0,82,0.00,,,0.00,0,Wunderground v.1.15,2013-02-27 00:42:00,
2013-02-26 19:52:00,39.3,34.3,30.13,NE,51,10.0,23.0,82,0.00,,,0.00,0,Wunderground v.1.15,2013-02-27 00:52:00,
2013-02-26 20:02:00,39.2,34.5,30.12,ENE,74,10.0,23.0,83,0.00,,,0.00,0,Wunderground v.1.15,2013-02-27 01:02:00,
2013-02-26 20:07:00,39.1,34.4,30.13,ENE,58,10.0,10.0,83,0.00,,,0.00,0,Wunderground v.1.15,2013-02-27 01:07:00,
2013-02-26 20:17:00,39.1,34.7,30.12,ENE,72,10.0,23.0,84,0.00,,,0.00,0,Wunderground v.1.15,2013-02-27 01:17:00,
2013-02-26 20:27:00,39.1,34.7,30.12,NE,52,11.0,11.0,84,0.00,,,0.00,0,Wunderground v.1.15,2013-02-27 01:27:00,
2013-02-26 20:32:00,39.1,34.7,30.12,NE,44,11.0,23.0,84,0.00,,,0.00,0,Wunderground v.1.15,2013-02-27 01:32:00,
2013-02-26 20:42:00,39.1,34.7,30.11,ENE,59,12.0,12.0,84,0.00,,,0.00,0,Wunderground v.1.15,2013-02-27 01:42:00,
2013-02-26 20:52:00,39.0,34.9,30.11,NE,55,11.0,23.0,85,0.00,,,0.00,0,Wunderground v.1.15,2013-02-27 01:52:00,
2013-02-26 21:02:00,38.9,35.1,30.10,ENE,62,11.0,22.0,86,0.00,,,0.00,0,Wunderground v.1.15,2013-02-27 02:02:00,
2013-02-26 21:12:00,38.7,35.2,30.08,ENE,65,12.0,22.0,87,0.00,,,0.01,0,Wunderground v.1.15,2013-02-27 02:12:00,
2013-02-26 21:17:00,38.5,35.3,30.08,ENE,74,11.0,11.0,88,0.00,,,0.01,0,Wunderground v.1.15,2013-02-27 02:17:00,
2013-02-26 21:27:00,38.5,35.3,30.08,ENE,78,11.0,23.0,88,0.00,,,0.01,0,Wunderground v.1.15,2013-02-27 02:27:00,
2013-02-26 21:37:00,38.5,35.5,30.07,East,88,10.0,10.0,89,0.00,,,0.01,0,Wunderground v.1.15,2013-02-27 02:37:00,
2013-02-26 21:42:00,38.5,35.5,30.07,NNE,33,11.0,13.0,89,0.00,,,0.01,0,Wunderground v.1.15,2013-02-27 02:42:00,
2013-02-26 21:52:00,38.6,35.6,30.05,ENE,77,13.0,13.0,89,0.00,,,0.02,0,Wunderground v.1.15,2013-02-27 02:52:00,
2013-02-26 21:57:00,38.5,35.8,30.05,NE,56,12.0,24.0,90,0.06,,,0.03,0,Wunderground v.1.15,2013-02-27 02:57:00,
2013-02-26 22:07:00,38.3,35.6,30.04,NE,43,12.0,12.0,90,0.09,,,0.04,0,Wunderground v.1.15,2013-02-27 03:07:00,
2013-02-26 22:17:00,38.3,35.9,30.03,East,80,12.0,12.0,91,0.05,,,0.04,0,Wunderground v.1.15,2013-02-27 03:17:00,
2013-02-26 22:22:00,38.3,35.9,30.03,North,360,12.0,16.0,91,0.04,,,0.05,0,Wunderground v.1.15,2013-02-27 03:22:00,
2013-02-26 22:32:00,38.4,36.3,30.02,ENE,64,12.0,26.0,92,0.06,,,0.06,0,Wunderground v.1.15,2013-02-27 03:32:00,
2013-02-26 22:42:00,38.5,36.4,30.02,NE,53,13.0,26.0,92,0.05,,,0.07,0,Wunderground v.1.15,2013-02-27 03:42:00,
2013-02-26 22:52:00,38.6,36.5,30.02,NE,45,11.0,27.0,92,0.05,,,0.07,0,Wunderground v.1.15,2013-02-27 03:52:00,
2013-02-26 22:57:00,38.7,36.6,30.01,NE,46,10.0,27.0,92,0.04,,,0.08,0,Wunderground v.1.15,2013-02-27 03:57:00,
2013-02-26 23:07:00,38.7,36.6,29.99,East,84,12.0,27.0,92,0.06,,,0.09,0,Wunderground v.1.15,2013-02-27 04:07:00,
2013-02-26 23:17:00,38.6,36.5,29.99,North,11,11.0,27.0,92,0.07,,,0.10,0,Wunderground v.1.15,2013-02-27 04:17:00,
2013-02-26 23:22:00,38.7,36.9,29.99,NNE,32,11.0,27.0,93,0.07,,,0.10,0,Wunderground v.1.15,2013-02-27 04:22:00,
2013-02-26 23:27:00,38.7,36.9,29.98,NE,49,12.0,27.0,93,0.05,,,0.10,0,Wunderground v.1.15,2013-02-27 04:27:00,
2013-02-26 23:37:00,38.8,36.9,29.98,East,82,13.0,27.0,93,0.17,,,0.12,0,Wunderground v.1.15,2013-02-27 04:37:00,
2013-02-26 23:42:00,38.8,36.9,29.97,North,360,12.0,27.0,93,0.30,,,0.14,0,Wunderground v.1.15,2013-02-27 04:42:00,
2013-02-26 23:52:00,38.9,37.0,29.95,NE,48,13.0,26.0,93,0.13,,,0.16,0,Wunderground v.1.15,2013-02-27 04:52:00,